{"data":{"norad_id":48397,"intl_designator":"2021-038AW","name":"STARLINK-2590","alt_names":[],"object_type":"PAYLOAD","status":"ACTIVE","operator":null,"country":"US","launch_date":"2021-05-04","launch_site_code":"AFETR","launch_vehicle":null,"mission":null,"orbit_class":"UNKNOWN","rcs_meters":null,"size_class":null,"mass_kg":null,"dimensions":null,"purposes":["comms"],"wikipedia_slug":null,"has_3d_model":false,"image_url":null,"decayed_at":null,"tle_current":{"epoch":"2026-05-24T22:49:01.298208Z","epoch_age_seconds":78660,"freshness":"FRESH","line1":"1 48397U 21038AW  26144.95070947  .00003222  00000+0  11547-3 0  9992","line2":"2 48397  53.1603 337.9514 0001110  93.7507 266.3622 15.31723885280344","mean_motion":15.31723885,"eccentricity":0.000111,"inclination_deg":53.1603,"raan_deg":337.9514,"arg_perigee_deg":93.7507,"mean_anomaly_deg":266.3622,"bstar":0.00011547,"rev_number":28034,"period_min":94.011721962539,"perigee_km":469.90857876536,"apogee_km":471.42901365212,"semimajor_km":6848.8057962087,"source":"CELESTRAK","updated_at":"2026-05-25T13:38:16.710882Z"}}}